Hourly Data Report for January 07, 2018

All times are specified in Local Standard Time (LST). Add 1 hour to adjust for Daylight Saving Time where and when it is observed.

VANCOUVER INTL A
BRITISH COLUMBIA

49°11'41.000" N
123°11'02.000" W
4.30 m
1108395
71892
YVR

Download Data

Hourly Data (January 2018)
Hourly Data Report for January 7, 2018
Temp Definition
°C
Dew Point Temp Definition
°C
Rel Hum Definition
%
Wind Dir Definition
10's deg

Wind Spd Definition
km/h
Visibility Definition
km
Stn Press Definition
kPa
Hmdx Definition


Wind Chill Definition


Weather Definition


TIME
00:00 Legend Double Dagger 6.0 5.0 94 8 12 32.2 102.18     LegendNANA
01:00 Legend Double Dagger 6.0 4.9 93 8 13 32.2 102.16     Cloudy
02:00 Legend Double Dagger 5.8 4.8 94 9 11 32.2 102.11     Rain
03:00 Legend Double Dagger 5.7 4.9 94 8 12 24.1 102.06     Rain
04:00 Legend Double Dagger 5.6 5.1 96 7 12 24.1 102.02     Rain
05:00 Legend Double Dagger 5.7 5.1 96 9 17 16.1 101.94     Rain
06:00 Legend Double Dagger 5.5 4.8 95 9 18 16.1 101.89     Rain
07:00 Legend Double Dagger 5.6 4.5 92 8 19 19.3 101.79     Rain
08:00 Legend Double Dagger 5.6 4.6 93 9 18 19.3 101.77     Rain
09:00 Legend Double Dagger 5.7 4.6 93 9 21 9.7 101.76     Moderate Rain,Fog
10:00 Legend Double Dagger 5.6 4.5 93 10 22 4.8 101.76     Rain,Fog
11:00 Legend Double Dagger 5.3 4.7 96 8 20 6.4 101.72     Moderate Rain,Fog
12:00 Legend Double Dagger 5.1 4.1 93 7 23 6.4 101.65     Moderate Rain,Fog
13:00 Legend Double Dagger 4.7 3.2 91 6 24 4.0 101.60     Rain,Fog
14:00 Legend Double Dagger 4.7 3.8 94 6 26 3.6 101.52     Rain,Fog
15:00 Legend Double Dagger 5.1 4.1 93 6 23 8.1 101.52     Drizzle,Fog
16:00 Legend Double Dagger 5.3 4.4 94 7 25 11.3 101.49     Drizzle
17:00 Legend Double Dagger 5.7 4.4 91 7 23 19.3 101.45     LegendNANA
18:00 Legend Double Dagger 6.0 4.3 89 8 21 24.1 101.40     LegendNANA
19:00 Legend Double Dagger 6.3 4.3 87 8 18 32.2 101.36     Cloudy
20:00 Legend Double Dagger 6.3 4.5 88 6 13 32.2 101.33     LegendNANA
21:00 Legend Double Dagger 6.6 4.5 87 6 17 32.2 101.31     LegendNANA
22:00 Legend Double Dagger 6.7 5.0 89 5 11 32.2 101.30     Cloudy
23:00 Legend Double Dagger 6.4 5.4 93 5 14 24.1 101.27     Rain

Notes on Data Quality.

Legend

  • E = Estimated
  • M = Missing
  • NA = Not Available
  • ‡ = Partner data that is not subject to review by the National Climate Archives
Date modified: